#timestamp,LO_Frequency,Hit,StdDev 
1620144015.8,286047000.9,N
1620144035.6,286046999.7,N
1620144055.4,286047001.8,N
1620144075.3,286047002.7,N
1620144095.1,286046999.8,N
1620144096.0,286046999.8,N
1620144115.8,286047000.0,N
1620144135.7,286047001.8,N
1620144155.5,286047003.6,N
1620144175.3,286047004.3,N
1620144195.2,286047003.2,N
1620144215.9,286047004.2,N
1620144235.7,286047001.3,N
1620144255.6,286047001.4,N
1620144275.4,286047001.1,N
1620144295.2,286047002.7,N
1620144315.1,286047003.6,N
1620144316.0,286047003.6,N
1620144335.8,286047003.1,N
1620144355.6,286047002.4,N
1620144375.5,286047000.1,N
1620144395.3,286047003.8,N
1620144415.1,286047000.3,N
1620144435.9,286047004.7,N
1620144485.7,286047007.3,E
1620144495.6,286047005.4,N
1620144515.5,286047001.7,P
1620144535.3,286047002.8,N
1620144555.1,286047001.9,N
1620144575.9,286047002.3,N
1620144595.7,286047001.9,N
1620144615.5,286047000.4,N
1620144635.4,286047002.4,N
1620144655.2,286047002.3,N
1620144675.0,286046999.8,N
1620144675.9,286046999.8,N
1620144695.8,286046999.9,N
1620144715.6,286047002.7,N
1620144735.4,286047002.4,N
1620144755.3,286047001.2,N
1620144775.1,286047000.6,N
1620144776.0,286047000.6,N
1620144795.8,286046998.1,N
1620144815.7,286046999.6,N
1620144835.5,286047000.6,N
1620144855.3,286046998.6,N
1620144875.2,286047002.5,N
1620144895.9,286046997.1,N
1620144915.7,286046988.5,Y
1620144935.6,286046993.8,P
1620144955.4,286046995.4,N
1620144975.2,286046995.3,N
1620144995.1,286046999.2,N
1620144996.0,286046999.2,N
1620145015.8,286047009.9,Y
1620145035.6,286047007.3,P
1620145055.5,286047005.7,N
1620145075.3,286047005.7,N
1620145095.1,286047010.1,N
1620145115.9,286047003.1,N
1620145135.7,286047006.5,N
1620145155.5,286047005.1,N
1620145175.4,286047009.0,N
1620145195.2,286047008.0,N
1620145215.0,286047010.5,Y
1620145215.9,286047010.5,P
1620145235.8,286047005.5,N
1620145255.6,286047002.1,N
1620145275.4,286047001.4,N
1620145295.3,286047002.9,N
1620145315.1,286047006.5,N
1620145316.0,286047006.5,N
1620145335.8,286047007.0,N
1620145355.7,286047007.0,N
1620145375.5,286047015.2,Y
1620145395.3,286047003.5,P
1620145415.2,286047000.2,N
1620145435.9,286046999.4,N
1620145455.7,286047004.6,N
1620145475.6,286047002.8,N
1620145495.4,286047006.4,N
1620145515.2,286047001.4,N
1620145535.1,286047003.0,N
1620145536.0,286047003.0,N
1620145555.8,286047003.1,N
1620145575.6,286047002.9,N
1620145595.5,286047004.9,N
1620145615.3,286047007.1,Y
1620145635.1,286047001.5,P
1620145655.9,286047004.4,P
1620145675.7,286047000.7,N
1620145695.5,286047007.0,Y
1620145715.4,286046998.4,P
1620145735.2,286047005.5,N
1620145755.0,286047001.0,N
1620145755.9,286047001.0,N
1620145775.8,286047000.1,N
1620145795.6,286047000.6,N
1620145815.4,286047054.4,Y
1620145835.3,286047017.5,P
1620145855.1,286046994.8,N
1620145856.0,286046994.8,N
1620145875.8,286046976.7,N
1620145895.7,286046965.9,N
1620145915.5,286046955.3,N
1620145935.3,286046949.5,N
1620145955.2,286046944.4,N
1620145975.9,286046941.3,N
1620145995.7,286046939.1,N
1620146015.6,286046938.4,N
1620146035.4,286046937.2,N
1620146055.2,286046935.6,N
1620146075.1,286046933.5,N
1620146076.0,286046933.5,N
1620146095.8,286046932.1,N
1620146115.6,286046929.8,N
1620146135.5,286046928.5,N
1620146155.3,286046928.8,N
1620146175.1,286046928.7,N
1620146195.9,286046926.7,N
1620146215.7,286046924.8,N
1620146235.5,286046925.6,N
1620146255.3,286046925.6,N
1620146275.2,286046923.5,N
1620146295.0,286046922.2,N
1620146295.9,286046922.2,N
1620146315.8,286046922.6,N
1620146335.6,286046918.6,Y
1620146355.4,286046975.3,P
1620146375.3,286046974.3,N
1620146395.1,286046975.0,N
1620146396.0,286046975.0,N
1620146415.8,286046974.2,N
1620146435.7,286046973.1,N
1620146455.5,286046973.9,N
1620146475.3,286046974.0,N
1620146495.2,286046973.5,N
1620146515.9,286046971.3,Y
1620146535.7,286046999.9,P
1620146555.6,286047001.2,N
1620146575.4,286046998.5,N
1620146595.2,286046998.2,N
1620146615.1,286046998.4,N
1620146616.0,286046998.4,N
1620146635.8,286046996.5,N
1620146655.6,286046999.0,N
1620146675.5,286046997.7,N
1620146695.3,286046997.0,N
1620146715.1,286046999.5,N
1620146735.9,286046999.4,N
1620146755.7,286046997.0,N
1620146775.5,286046999.1,N
1620146795.4,286046997.0,N
1620146815.2,286046996.8,N
1620146835.0,286046996.7,N
1620146835.9,286046996.7,N
1620146855.8,286046996.5,N
1620146875.6,286046998.7,N
1620146895.4,286046996.9,N
1620146915.2,286046999.1,N
1620146935.1,286046999.6,N
1620146936.0,286046999.6,N
1620146955.8,286046999.4,N
1620146975.6,286046998.6,N
1620146995.5,286046998.3,N
1620147015.3,286046996.7,N
1620147035.1,286046996.9,N
1620147055.9,286046996.5,N
1620147075.7,286047000.7,N
1620147095.5,286046999.9,N
1620147115.4,286047001.0,N
1620147135.2,286046998.2,N
1620147155.0,286047000.7,N
1620147155.9,286047000.7,N
1620147175.8,286046999.2,N
1620147195.6,286047000.7,N
1620147215.4,286047000.9,N
1620147235.3,286047002.7,N
1620147255.1,286047000.0,N
1620147275.8,286047002.3,N
1620147295.7,286047002.5,N
1620147315.5,286047000.2,N
1620147335.3,286046998.5,N
1620147355.2,286047000.1,N
1620147375.0,286047000.1,N
1620147375.9,286047000.1,N
1620147395.7,286047000.1,N
1620147415.6,286047002.8,N
1620147435.4,286047000.6,N
1620147455.2,286047002.7,N
1620147475.1,286046999.9,N
1620147476.0,286046999.9,N
1620147495.8,286047000.6,N
1620147515.6,286047002.2,N
1620147535.5,286047000.5,N
1620147555.3,286047002.6,N
1620147575.1,286047002.6,N
1620147595.9,286047001.4,N
